Puyallup, WA
on Saturday, January 26, 2013

Saturday
Previous Day Next Day
Daily Summary
 ActualAverage (KSEA)Record (KSEA)
Temperature
Mean Temperature °F 43°F  
Max Temperature 48°F 48°F 58°F (2003)
Min Temperature 32°F 37°F 9°F (1957)
Degree Days
Heating Degree Days 25 22  
Month to date heating degree days 600  
Since 1 July heating degree days 2538  
Cooling Degree Days 0 0  
Month to date cooling degree days 0  
Year to date cooling degree days 0  
Moisture
Dew Point 37°F   
Average Humidity 90    
Maximum Humidity 100    
Minimum Humidity 62    
Precipitation
Precipitation 0.01 in 0.16 in 1.03 in (1950)
Month to date precipitation 4.78  
Year to date precipitation 4.78  
Snow
Snow 0.00 in in 10.00 in (1950)
Month to date snowfall  
Since 1 July snowfall  
Snow Depth in   
Wind
Wind Speed 2 mph   
Max Wind Speed 14 mph   
Max Gust Speed 18 mph   
Visibility 10 miles   
Events Rain   

Key: T is trace of precipitation, MM is missing value
Source: NWS Daily Summary
Time(PST)TemperatureDew PointHumidity Pressure Visibility Wind DirectionWind SpeedGust SpeedPrecipitationEvents Conditions
12:15 AM 32.0°F 32.0°F 100% 29.93 in 7.0 miles Calm Calm - N/A   Mostly Cloudy
12:35 AM 32.0°F 32.0°F 100% 29.92 in 6.0 miles Calm Calm - N/A   Scattered Clouds
12:55 AM 32.0°F 32.0°F 100% 29.92 in 7.0 miles Calm Calm - N/A   Clear
1:15 AM 32.0°F 32.0°F 100% 29.92 in 2.5 miles Calm Calm - N/A   Clear
1:35 AM 32.0°F 32.0°F 100% 29.91 in 5.0 miles Calm Calm - N/A   Clear
1:55 AM 32.0°F 32.0°F 100% 29.91 in 10.0 miles Calm Calm - N/A   Clear
2:15 AM 32.0°F 32.0°F 100% 29.91 in 10.0 miles Calm Calm - N/A   Clear
2:35 AM 32.0°F 32.0°F 100% 29.91 in 10.0 miles Calm Calm - N/A   Clear
2:55 AM 32.0°F 32.0°F 100% 29.90 in 10.0 miles Calm Calm - N/A   Clear
3:15 AM 33.8°F 33.8°F 100% 29.90 in 10.0 miles Calm Calm - N/A Rain Light Rain
3:35 AM 33.8°F 33.8°F 100% 29.89 in 5.0 miles Calm Calm - N/A Rain Light Rain
3:55 AM 35.6°F 35.6°F 100% 29.89 in 7.0 miles Calm Calm - N/A Rain Light Rain
4:15 AM 37.4°F 37.4°F 100% 29.88 in 10.0 miles Calm Calm - N/A Rain Light Rain
4:35 AM 39.2°F 37.4°F 93% 29.88 in 10.0 miles South 5.8 mph - N/A Rain Light Rain
4:55 AM 39.2°F 37.4°F 93% 29.89 in 8.0 miles SSW 3.5 mph - N/A Rain Light Rain
5:15 AM 39.2°F 37.4°F 93% 29.88 in 10.0 miles Calm Calm - N/A Rain Light Rain
5:35 AM 39.2°F 37.4°F 93% 29.88 in 10.0 miles Calm Calm - N/A   Mostly Cloudy
5:55 AM 39.2°F 37.4°F 93% 29.88 in 10.0 miles Calm Calm - N/A   Scattered Clouds
6:15 AM 39.2°F 37.4°F 93% 29.88 in 10.0 miles Calm Calm - N/A   Scattered Clouds
6:35 AM 37.4°F 37.4°F 100% 29.89 in 10.0 miles Calm Calm - N/A   Mostly Cloudy
6:55 AM 37.4°F 37.4°F 100% 29.89 in 10.0 miles Calm Calm - N/A   Mostly Cloudy
7:15 AM 37.4°F 37.4°F 100% 29.90 in 10.0 miles Calm Calm - N/A   Scattered Clouds
7:35 AM 39.2°F 37.4°F 93% 29.90 in 10.0 miles Calm Calm - N/A   Mostly Cloudy
7:55 AM 39.2°F 37.4°F 93% 29.91 in 10.0 miles Calm Calm - N/A   Mostly Cloudy
8:15 AM 39.2°F 37.4°F 93% 29.91 in 10.0 miles Calm Calm - N/A   Scattered Clouds
8:35 AM 41.0°F 37.4°F 87% 29.92 in 10.0 miles SSW 4.6 mph - N/A   Scattered Clouds
8:55 AM 41.0°F 37.4°F 87% 29.92 in 10.0 miles SSW 6.9 mph - N/A   Scattered Clouds
9:15 AM 41.0°F 37.4°F 87% 29.93 in 10.0 miles SW 6.9 mph - N/A   Scattered Clouds
9:35 AM 41.0°F 37.4°F 87% 29.94 in 10.0 miles SSW 4.6 mph - N/A   Mostly Cloudy
9:55 AM 42.8°F 37.4°F 81% 29.94 in 10.0 miles SSW 5.8 mph - N/A   Mostly Cloudy
10:15 AM 44.6°F 37.4°F 76% 29.95 in 10.0 miles SSW 5.8 mph - N/A   Mostly Cloudy
10:55 AM 44.6°F 37.4°F 76% 29.95 in 10.0 miles SW 6.9 mph 16.1 mph N/A   Overcast
11:15 AM 46.4°F 37.4°F 71% 29.95 in 10.0 miles SSW 9.2 mph - N/A   Mostly Cloudy
11:35 AM 46.4°F 37.4°F 71% 29.95 in 10.0 miles SW 9.2 mph - N/A   Overcast
11:55 AM 46.4°F 37.4°F 71% 29.95 in 10.0 miles SSW 11.5 mph 16.1 mph N/A   Mostly Cloudy
12:15 PM 46.4°F 37.4°F 71% 29.94 in 10.0 miles SW 8.1 mph - N/A   Scattered Clouds
12:35 PM 46.4°F 37.4°F 71% 29.94 in 10.0 miles WSW 12.7 mph 17.3 mph N/A   Scattered Clouds
12:55 PM 46.4°F 37.4°F 71% 29.94 in 10.0 miles WSW 11.5 mph 18.4 mph N/A   Mostly Cloudy
1:15 PM 46.4°F 37.4°F 71% 29.94 in 10.0 miles WSW 13.8 mph - N/A   Mostly Cloudy
1:35 PM 46.4°F 37.4°F 71% 29.94 in 10.0 miles WSW 11.5 mph 17.3 mph N/A   Mostly Cloudy
1:55 PM 46.4°F 37.4°F 71% 29.94 in 10.0 miles SW 8.1 mph - N/A   Partly Cloudy
2:15 PM 46.4°F 37.4°F 71% 29.94 in 10.0 miles SW 9.2 mph - N/A   Scattered Clouds
2:35 PM 46.4°F 37.4°F 71% 29.94 in 10.0 miles SW 8.1 mph - N/A   Mostly Cloudy
2:55 PM 48.2°F 35.6°F 62% 29.94 in 10.0 miles SW 9.2 mph 16.1 mph N/A   Mostly Cloudy
3:15 PM 44.6°F 35.6°F 71% 29.94 in 10.0 miles SW 6.9 mph - N/A   Mostly Cloudy
3:35 PM 44.6°F 35.6°F 71% 29.95 in 10.0 miles SW 4.6 mph - N/A   Mostly Cloudy
3:55 PM 44.6°F 35.6°F 71% 29.95 in 10.0 miles West 4.6 mph - N/A   Mostly Cloudy
4:15 PM 41.0°F 37.4°F 87% 29.96 in 10.0 miles West 6.9 mph - N/A Rain Light Rain
4:35 PM 39.2°F 39.2°F 100% 29.96 in 4.0 miles SW 4.6 mph - 0.01 in   Overcast
4:55 PM 39.2°F 37.4°F 93% 29.97 in 10.0 miles SW 4.6 mph - 0.01 in   Mostly Cloudy
5:15 PM 39.2°F 37.4°F 93% 29.97 in 10.0 miles Calm Calm - N/A   Scattered Clouds
5:35 PM 37.4°F 37.4°F 100% 29.98 in 10.0 miles Calm Calm - N/A   Clear
5:55 PM 37.4°F 37.4°F 100% 29.98 in 10.0 miles Calm Calm - N/A   Clear
6:15 PM 37.4°F 37.4°F 100% 29.98 in 10.0 miles Calm Calm - N/A   Clear
6:35 PM 37.4°F 37.4°F 100% 29.99 in 10.0 miles Calm Calm - N/A   Clear
6:55 PM 37.4°F 37.4°F 100% 29.99 in 10.0 miles Calm Calm - N/A   Partly Cloudy
7:15 PM 37.4°F 37.4°F 100% 30.00 in 10.0 miles Calm Calm - N/A   Scattered Clouds
7:35 PM 37.4°F 37.4°F 100% 30.00 in 10.0 miles Calm Calm - N/A   Scattered Clouds
7:55 PM 37.4°F 37.4°F 100% 30.00 in 10.0 miles Calm Calm - N/A Rain Light Rain
8:15 PM 39.2°F 37.4°F 93% 30.00 in 10.0 miles Calm Calm - N/A   Mostly Cloudy
8:35 PM 37.4°F 37.4°F 100% 30.01 in 10.0 miles Calm Calm - N/A Rain Light Rain
8:55 PM 39.2°F 37.4°F 93% 30.01 in 10.0 miles Calm Calm - N/A   Overcast
9:15 PM 39.2°F 37.4°F 93% 30.01 in 10.0 miles Calm Calm - N/A   Overcast
9:35 PM 39.2°F 37.4°F 93% 30.02 in 10.0 miles Calm Calm - N/A   Overcast
9:55 PM 39.2°F 37.4°F 93% 30.02 in 10.0 miles Calm Calm - N/A   Overcast
10:15 PM 39.2°F 37.4°F 93% 30.02 in 10.0 miles Calm Calm - N/A   Overcast
10:35 PM 39.2°F 37.4°F 93% 30.03 in 10.0 miles Calm Calm - N/A   Overcast
10:55 PM 39.2°F 37.4°F 93% 30.04 in 10.0 miles Calm Calm - N/A   Overcast
11:15 PM 39.2°F 37.4°F 93% 30.04 in 10.0 miles Calm Calm - N/A   Overcast
11:35 PM 39.2°F 37.4°F 93% 30.04 in 10.0 miles Calm Calm - N/A   Overcast
11:55 PM 39.2°F 37.4°F 93% 30.04 in 10.0 miles Calm Calm - N/A   Overcast
Moon Phase
Jan. 26 Jan. 26 Feb. 03 Feb. 10 Feb. 17
Sunrise:07:40 AM (PST) Moon Rise:05:07 PM (PST)1/26
Sunset:05:03 PM (PST) Moon Set:06:59 AM (PST)1/26

Copyright © 2014 The Weather Underground, Inc.